DACH+ Corporate Intelligence Index
33.9M+ registered entities across 50+ jurisdictions.
Total Corpus Volume
33.9M
Indexed registered entities
Current View
50+
Entities matching filters
Page
5+
50 entities per page
50+ entities
| Entity & Legal Form | Registry No. | JUR. | Location | Status | Form | Last Sync |
|---|---|---|---|---|---|---|
NEW BUNGALOW, STAITHES ROAD, PRESTON | 5834E4E9-8B5D-29C7-E063-4804A8C015BC | GB | HULL | — | property_transaction | 2026-09-05 |
14, THURLOW AVENUE, POCKLINGTON | 5834E4E9-8B5F-29C7-E063-4804A8C015BC | GB | YORK | — | property_transaction | 2026-09-05 |
3, COURT GARDENS, SNAITH | 5834E4E9-8B60-29C7-E063-4804A8C015BC | GB | GOOLE | — | property_transaction | 2026-09-05 |
22, SCAIFE CLOSE | 5834E4E9-8B61-29C7-E063-4804A8C015BC | GB | COTTINGHAM | — | property_transaction | 2026-09-05 |
4, CROWLE CLOSE, ANLABY | 5834E4E9-8B62-29C7-E063-4804A8C015BC | GB | HULL | — | property_transaction | 2026-09-05 |
FLAT 4, 56, NORTH BAR WITHOUT | 5834E4E9-8B63-29C7-E063-4804A8C015BC | GB | BEVERLEY | — | property_transaction | 2026-09-05 |
1, FORD CLOSE | 5834E4E9-8B64-29C7-E063-4804A8C015BC | GB | BEVERLEY | — | property_transaction | 2026-09-05 |
2, BAILEY STREET, ANLABY | 5834E4E9-8B66-29C7-E063-4804A8C015BC | GB | HULL | — | property_transaction | 2026-09-05 |
9, SUNNINGDALE ROAD | 5834E4E9-8B67-29C7-E063-4804A8C015BC | GB | HESSLE | — | property_transaction | 2026-09-05 |
4, THE PADDOCK, SANDS LANE, BARMSTON | 5834E4E9-8B69-29C7-E063-4804A8C015BC | GB | DRIFFIELD | — | property_transaction | 2026-09-05 |
2, SAMUELSON CROFT | 5834E4E9-8B6A-29C7-E063-4804A8C015BC | GB | HESSLE | — | property_transaction | 2026-09-05 |
21, GALLAND ROAD, WELTON | 5834E4E9-8B6B-29C7-E063-4804A8C015BC | GB | BROUGH | — | property_transaction | 2026-09-05 |
31, PINFOLD STREET | 5834E4E9-8B6C-29C7-E063-4804A8C015BC | GB | BRIDLINGTON | — | property_transaction | 2026-09-05 |
7, WEST HILL ROAD, KIRK ELLA | 5834E4E9-8B6D-29C7-E063-4804A8C015BC | GB | HULL | — | property_transaction | 2026-09-05 |
42, CRESCENT STREET | 5834E4E9-8B6F-29C7-E063-4804A8C015BC | GB | COTTINGHAM | — | property_transaction | 2026-09-05 |
23, PARADISE DRIVE, WOODMANSEY | 5834E4E9-8B70-29C7-E063-4804A8C015BC | GB | BEVERLEY | — | property_transaction | 2026-09-05 |
4, WOODLANDS GROVE, SKIRLAUGH | 5834E4E9-8B71-29C7-E063-4804A8C015BC | GB | HULL | — | property_transaction | 2026-09-05 |
61, HAWKSWOOD CRESCENT | 5834E4E9-8EE6-29C7-E063-4804A8C015BC | GB | LEEDS | — | property_transaction | 2026-09-05 |
BULL COTTAGE, 44, PARK LANE, BRETTON | 5834E4E9-8EE8-29C7-E063-4804A8C015BC | GB | WAKEFIELD | — | property_transaction | 2026-09-05 |
48, NETHERWOOD AVENUE | 5834E4E9-8EE9-29C7-E063-4804A8C015BC | GB | CASTLEFORD | — | property_transaction | 2026-09-05 |
3, TEMPEST CLOSE, DENHOLME | 5834E4E9-8EEB-29C7-E063-4804A8C015BC | GB | BRADFORD | — | property_transaction | 2026-09-05 |
140, HEALDS ROAD | 5834E4E9-8EEC-29C7-E063-4804A8C015BC | GB | DEWSBURY | — | property_transaction | 2026-09-05 |
71, ASKET DRIVE | 5834E4E9-8EED-29C7-E063-4804A8C015BC | GB | LEEDS | — | property_transaction | 2026-09-05 |
FLAT 1, 55, IVESON DRIVE | 5834E4E9-8EEE-29C7-E063-4804A8C015BC | GB | LEEDS | — | property_transaction | 2026-09-05 |
70, HARROWINS FARM DRIVE, QUEENSBURY | 5834E4E9-8EEF-29C7-E063-4804A8C015BC | GB | BRADFORD | — | property_transaction | 2026-09-05 |
FLAT 39, THE LAUREATES, SHAKESPEARE ROAD, GUISELEY | 5834E4E9-8EF1-29C7-E063-4804A8C015BC | GB | LEEDS | — | property_transaction | 2026-09-05 |
2, BEWERLEY MEWS, MENSTON | 5834E4E9-8EF3-29C7-E063-4804A8C015BC | GB | ILKLEY | — | property_transaction | 2026-09-05 |
20, PARK VIEW COURT | 5834E4E9-8EF5-29C7-E063-4804A8C015BC | GB | CLECKHEATON | — | property_transaction | 2026-09-05 |
17, LISTERS COURT, CUNLIFFE ROAD | 5834E4E9-8EF6-29C7-E063-4804A8C015BC | GB | ILKLEY | — | property_transaction | 2026-09-05 |
K1 SAXTON, THE AVENUE | 5834E4E9-8EF7-29C7-E063-4804A8C015BC | GB | LEEDS | — | property_transaction | 2026-09-05 |
7, BRETBY AVENUE | 5834E4E9-8EF8-29C7-E063-4804A8C015BC | GB | OSSETT | — | property_transaction | 2026-09-05 |
46, KELMSCOTT LANE | 5834E4E9-8EFA-29C7-E063-4804A8C015BC | GB | LEEDS | — | property_transaction | 2026-09-05 |
9, LARCH AVENUE | 5834E4E9-8EFB-29C7-E063-4804A8C015BC | GB | CASTLEFORD | — | property_transaction | 2026-09-05 |
14, FEARNVILLE MOUNT | 5834E4E9-8EFD-29C7-E063-4804A8C015BC | GB | LEEDS | — | property_transaction | 2026-09-05 |
11, WALKER WOOD, BAILDON | 5834E4E9-8EFE-29C7-E063-4804A8C015BC | GB | SHIPLEY | — | property_transaction | 2026-09-05 |
APARTMENT 3, JOWETT COURT, HIGHFIELD ROAD, IDLE | 5834E4E9-8EFF-29C7-E063-4804A8C015BC | GB | BRADFORD | — | property_transaction | 2026-09-05 |
18, ARNALL CLOSE | 5834E4E9-8F01-29C7-E063-4804A8C015BC | GB | KNOTTINGLEY | — | property_transaction | 2026-09-05 |
25, ROSEDALE DRIVE, TINGLEY | 5834E4E9-8F02-29C7-E063-4804A8C015BC | GB | WAKEFIELD | — | property_transaction | 2026-09-05 |
22, PINE WOOD COURT | 5834E4E9-8F03-29C7-E063-4804A8C015BC | GB | CASTLEFORD | — | property_transaction | 2026-09-05 |
465, OTLEY OLD ROAD | 5834E4E9-8F04-29C7-E063-4804A8C015BC | GB | LEEDS | — | property_transaction | 2026-09-05 |
37, LANCASTER WAY | 5834E4E8-E1A7-29C7-E063-4804A8C015BC | GB | ASHFORD | — | property_transaction | 2026-09-05 |
40, CAPEL PLACE | 5834E4E8-E1B9-29C7-E063-4804A8C015BC | GB | DARTFORD | — | property_transaction | 2026-09-05 |
FLAT 68, LYON COURT, HIGH STREET | 5834E4E8-E1C0-29C7-E063-4804A8C015BC | GB | ROCHESTER | — | property_transaction | 2026-09-05 |
2, PILE COTTAGES, CANTERBURY ROAD | 5834E4E8-E1C4-29C7-E063-4804A8C015BC | GB | FAVERSHAM | — | property_transaction | 2026-09-05 |
48, WHERRY CLOSE | 5834E4E8-E1C5-29C7-E063-4804A8C015BC | GB | MARGATE | — | property_transaction | 2026-09-05 |
WESLEY HOUSE, SOLOMONS LANE | 5834E4E8-E1CA-29C7-E063-4804A8C015BC | GB | FAVERSHAM | — | property_transaction | 2026-09-05 |
27, MARLBOROUGH ROAD | 5834E4E8-E1E3-29C7-E063-4804A8C015BC | GB | DARTFORD | — | property_transaction | 2026-09-05 |
31, TALMEAD ROAD | 5834E4E8-E1E6-29C7-E063-4804A8C015BC | GB | HERNE BAY | — | property_transaction | 2026-09-05 |
5C, ELIZABETH HOUSE, ALEXANDRA STREET | 5834E4E8-E1EB-29C7-E063-4804A8C015BC | GB | MAIDSTONE | — | property_transaction | 2026-09-05 |
12, SHOLDEN ROAD | 5834E4E8-E1F9-29C7-E063-4804A8C015BC | GB | ROCHESTER | — | property_transaction | 2026-09-05 |